Voltar ao catálogo

IRIDIUM 33 DEB

AtivoPO
NORAD 35680·DEBRIS·🇺🇸 United States

Lançado Sep 14, 1997 de Baikonur Cosmodrome

Loading…

Próximas Passagens (próximas 24 horas)

TLE

EnvelhecendoSource: Space-Track

Época: Sep 9, 2026, 18:39 UTC

1 35680U 97051RJ  26252.77748933  .00001947  00000-0  75668-3 0  9995
2 35680  86.0968 261.2128 0148973 135.1619 350.4399 14.23454613645541

Acompanhe IRIDIUM 33 DEB em tempo real com AllMySat

Download on the App Store